Flag for Finland Weather past 2 weeks in Kemi, Finland

Now
63 °F

Rain. Overcast.


Feels Like: 63 °F
Forecast: 53 / 61 °F
Wind: 2 mph from West

Location: Kemi Airport

Current Time: Jul 3, 2015 at 7:26:44 PM

Latest Report: Jul 3, 2015 at 6:50 PM


Visibility: N/A

Pressure: 29.98 "Hg

Humidity: 94%

Dew point: 61 °F

Location of KemiLocation

Historic Weather in Kemi — Graph

°F

Kemi temperature yesterday

Maximum temperature yesterday: 66 °F (at 10:50 AM)
Minimum temperature yesterday: 55 °F (at 12:50 AM)
Average temperature yesterday: 61 °F

Past Weeks' High & Low Weather Summary

 TemperatureHumidityPressure
High73 °F (Jun 22, 1:50 PM)100% (Jun 22, 1:20 AM)30.18 "Hg (Jun 22, 1:20 AM)
Low43 °F (Jun 19, 3:20 AM)28% (Jun 20, 5:20 PM)29.50 "Hg (Jun 25, 8:50 AM)
Average57 °F79%29.85 "Hg
* Reported Jun 18 6:20 PM — Jul 3 6:20 PM, Kemi, Weather by CustomWeather, © 2015

Note: Actual official high and low records may vary slightly from our data, if they occured in-between our weather recording intervals... More about our weather records

Advertising

Kemi weather history for previous 24 hours

 ConditionsComfort  
Time TempWeatherWind HumidityBarometerVisibility
6:20 PM
Fri, Jul 3
63 °FLight rain. Overcast.2 mph94%29.98 "HgN/A
5:50 PM64 °FLight rain. Overcast.5 mph88%29.98 "HgN/A
5:20 PM64 °FLight rain. Overcast.6 mph88%30.01 "HgN/A
4:50 PM68 °FLight rain. Partly sunny.7 mph73%29.98 "HgN/A
4:20 PM70 °FLight rain. Passing clouds.3 mph64%29.98 "HgN/A
3:50 PM72 °FPassing clouds.5 mph61%29.98 "HgN/A
3:20 PM72 °FPassing clouds.5 mph61%29.98 "HgN/A
2:50 PM72 °FPassing clouds.7 mph61%29.98 "HgN/A
2:20 PM72 °FPassing clouds.8 mph57%29.98 "HgN/A
1:50 PM73 °FScattered clouds.9 mph57%29.95 "HgN/A
1:20 PM73 °FPassing clouds.12 mph57%29.95 "HgN/A
12:50 PM72 °FPassing clouds.7 mph57%29.95 "HgN/A
12:20 PM68 °FSprinkles. Scattered clouds.5 mph73%29.95 "HgN/A
11:50 AM68 °FPassing clouds.6 mph78%29.95 "HgN/A
11:20 AM66 °FPassing clouds.8 mph78%29.95 "HgN/A
10:50 AM66 °FPassing clouds.9 mph78%29.95 "HgN/A
10:20 AM66 °FPassing clouds.7 mph78%29.95 "HgN/A
9:50 AM64 °FPassing clouds.8 mph83%29.95 "HgN/A
9:20 AM64 °FPassing clouds.6 mph83%29.95 "HgN/A
8:50 AM63 °FPassing clouds.7 mph88%29.95 "HgN/A
8:20 AM61 °FPassing clouds.8 mph94%29.98 "HgN/A
7:50 AM61 °FPassing clouds.7 mph88%29.98 "HgN/A
7:20 AM61 °FPassing clouds.7 mph88%29.98 "HgN/A
6:50 AM59 °FSunny.7 mph94%30.01 "Hg10 mi
6:20 AM59 °FSunny.8 mph94%30.01 "Hg10 mi
5:50 AM59 °FPartly sunny.6 mph100%30.04 "Hg6 mi
5:20 AM59 °FBroken clouds.9 mph100%30.04 "Hg6 mi
4:50 AM59 °FSunny.6 mph100%30.04 "Hg10 mi
4:20 AM59 °FBroken clouds.6 mph100%30.04 "Hg5 mi
3:50 AM59 °FPartly sunny.7 mph100%30.07 "Hg5 mi
3:20 AM59 °FOvercast.5 mph100%30.07 "Hg3 mi
2:50 AM61 °FPartly cloudy.5 mph94%30.09 "Hg4 mi
2:20 AM61 °FLight rain. Low clouds.7 mph94%30.09 "Hg5 mi
1:50 AM61 °FLight rain. Overcast.5 mph94%30.12 "HgN/A
1:20 AM61 °FLight rain. Overcast.7 mph94%30.12 "HgN/A
12:50 AM61 °FPassing clouds.5 mph94%30.12 "HgN/A
12:20 AM59 °FSunny.5 mph100%30.12 "Hg10 mi
11:50 PM
Thu, Jul 2
59 °FSunny.5 mph100%30.12 "Hg10 mi
11:20 PM61 °FLow clouds.5 mph94%30.12 "HgN/A
10:50 PM61 °FPassing clouds.5 mph94%30.12 "HgN/A
10:29 PM61 °FPassing clouds.5 mph94%30.12 "HgN/A
9:50 PM61 °FSunny.6 mph94%30.12 "Hg10 mi
9:20 PM61 °FPartly sunny.7 mph94%30.15 "HgN/A
8:50 PM61 °FPartly sunny.6 mph94%30.15 "HgN/A
8:20 PM61 °FPartly sunny.7 mph94%30.15 "HgN/A
7:50 PM59 °FLight rain. Partly sunny.6 mph100%30.15 "HgN/A
7:20 PM59 °FLight rain. Low clouds.9 mph94%30.15 "HgN/A
Weather by CustomWeather, © 2015

See weather overviewHow to use our weather pages